This demonstration page uses our WeatherBlox Daily Observations layout. Learn more.

Left ArrowRight Arrow

34.74481, -87.66753

Hourly Observations for May 21, 2022

Temp ( °F °C ) Dew Point ( °F °C ) Humidity (%) Winds ( mph kmh ) Pressure ( in mb ) Visibility ( mi km ) Precip ( " mm )
12:53 am 00:53 Clear 76 24.4 68 20 77 77 S 9 15 29.92 1013 10 16 0.00 0.00
1:53 am 01:53 Clear 76 24.4 69 20.6 79 79 S 9 15 29.93 1014 10 16 0.00 0.00
2:53 am 02:53 Clear 76 24.4 69 20.6 79 79 S 10 17 29.94 1014 10 16 0.00 0.00
3:53 am 03:53 Clear 75 23.9 69 20.6 82 82 S 9 15 29.96 1015 10 16 0.00 0.00
4:53 am 04:53 Clear 74 23.3 69 20.6 85 85 S 9 15 29.97 1015 10 16 0.00 0.00
5:53 am 05:53 Sunny 73 22.8 69 20.6 87 87 S 8 13 29.99 1016 10 16 0.00 0.00
6:53 am 06:53 Sunny 75 23.9 70 21.1 84 84 S 7 11 30.01 1016 10 16 0.00 0.00
7:53 am 07:53 Mostly Sunny 78 25.6 70 21.1 76 76 SSW 12 19 30.03 1017 10 16 0.00 0.00
8:53 am 08:53 Mostly Sunny 81 27.2 70 21.1 69 69 S 8 13 30.03 1017 10 16 0.00 0.00
9:53 am 09:53 Partly Cloudy 84 28.9 69 20.6 61 61 SSW 9 15 30.05 1018 10 16 0.00 0.00
10:53 am 10:53 Partly Cloudy 85 29.4 69 20.6 59 59 SSW 12 19 30.06 1018 10 16 0.00 0.00
11:53 am 11:53 Partly Cloudy 88 31.1 69 20.6 54 54 SSW 13 20 30.07 1018 10 16 0.00 0.00
12:53 pm 12:53 Mostly Cloudy 89 31.7 68 20 50 50 SSW 13 20 30.06 1018 10 16 0.00 0.00
1:53 pm 13:53 Mostly Cloudy 89 31.7 68 20 50 50 SSW 14 22 30.03 1017 10 16 0.00 0.00
2:53 pm 14:53 Partly Cloudy 91 32.8 68 20 47 47 S 13 20 30.00 1016 10 16 0.00 0.00
3:53 pm 15:53 Partly Cloudy 92 33.3 68 20 46 46 SSW 12 19 29.97 1015 10 16 0.00 0.00
4:53 pm 16:53 Sunny 90 32.2 69 20.6 50 50 SSW 8 13 29.96 1015 10 16 0.00 0.00
5:24 pm 17:24 Mostly Cloudy with Thunderstorms 88 31.1 68 20 52 52 SW 8 13 29.98 1015 10 16 0.00 0.00
5:40 pm 17:40 Cloudy with Strong Thunderstorms 78 25.6 71 21.7 79 79 W 10 17 29.99 1015 2 3 0.09 2.29
5:51 pm 17:51 Mostly Cloudy with Nearby Thunderstorms 79 26 72 22 79 79 SE 8 13 29.99 1015 4 6 0.14 3.56
5:53 pm 17:53 Mostly Cloudy with Nearby Thunderstorms 78 25.6 73 22.8 85 85 SE 5 7 29.99 1016 8 13 0.14 3.56
6:38 pm 18:38 Mostly Sunny 79 26.1 75 23.9 88 88 NNE 7 11 30.00 1016 8 13 0.00 0.00
6:53 pm 18:53 Sunny 79 26.1 75 23.9 88 88 E 5 7 30.00 1016 9 14 0.00 0.00
7:53 pm 19:53 Clear 77 25 74 23.3 90 90 E 6 9 30.01 1016 7 11 0.00 0.00
8:53 pm 20:53 Mostly Clear 75 23.9 71 21.7 88 88 ENE 3 6 30.01 1016 10 16 0.00 0.00
9:48 pm 21:48 Mostly Cloudy with Nearby Thunderstorms 73 23 70 21 89 89 Calm 30.05 1018 10 16 0.00 0.00
9:53 pm 21:53 Mostly Cloudy with Nearby Thunderstorms 74 23.3 70 21.1 88 88 Calm 30.05 1018 10 16 0.00 0.00
10:07 pm 22:07 Partly Cloudy 73 22.8 69 20.6 87 87 N 8 13 30.07 1018 9 14 0.00 0.00
10:16 pm 22:16 Partly Cloudy with Nearby Thunderstorms 73 22.8 68 20 84 84 N 8 13 30.07 1018 10 16 0.00 0.00
10:31 pm 22:31 Partly Cloudy 72 22.2 67 19.4 84 84 NE 6 9 30.07 1018 10 16 0.00 0.00
10:53 pm 22:53 Mostly Clear 72 22.2 67 19.4 84 84 NE 7 11 30.08 1019 10 16 0.00 0.00
11:42 pm 23:42 Mostly Cloudy with Nearby Thunderstorms 72 22.2 64 17.8 76 76 NW 15 24 30.16 1021 10 16 0.00 0.00
11:53 pm 23:53 Cloudy 71 21.7 64 17.8 79 79 WNW 7 11 30.16 1022 10 16 0.00 0.00

Powered by AerisWeather